Terug naar catalogus

STARLINK-11075

ActiefCommunicatieVLEO
NORAD 58706·PAYLOAD·🇺🇸 United States

Gelanceerd Jan 3, 2024 vanaf Vandenberg Space Force Base

Loading…

Volgende Passages (komende 24 uur)

TLE

VersSource: CelesTrak SupGP

Epoch: Sep 15, 2026, 02:49 UTC

1 58706C 24002B   26258.11784722  .00059061  00000+0  32450-3 0  2584
2 58706  53.1459  57.6497 0001906 230.8728 130.3822 15.79022475    11

Volg STARLINK-11075 in realtime met AllMySat

Download on the App Store